GLOBALSTAR M067 [+]

Last updated on Fri Dec 29 2023 00:02:56 GMT+0000 (Coordinated Universal Time)

1 32263U 07048A 23361.91265191 -.00000089 00000+0 59227-4 0 9990 2 32263 51.9704 167.9906 0000365 101.4573 64.1166 12.40636581742796
UTC large
Height (km)
Speed (km/s)
/
Latitude / Longitude
Inclination (degrees)
Orbital Period (minutes)
Azimuth
Elevation
Range (km)
Doppler Factor

Next 0 passes for location: London (51.5072 / 0.1276)

Sorry there are no passes over London.
GLOBALSTAR M067 [+]